Вернуться в каталог

COSMOS 1620

АктивенВоенныеPO
NORAD 15472·PAYLOAD·🇷🇺 Russia

Запущен Jan 15, 1985 с Plesetsk Cosmodrome

Loading…

Ближайшие Пролёты (ближайшие 24 часа)

TLE

СвежийSource: Space-Track

Эпоха: Sep 14, 2026, 17:58 UTC

1 15472U 85003D   26257.74905856  .00000011  00000-0  31337-6 0  9996
2 15472  82.6064 355.7780 0014144 267.8429 258.8901 12.65065561923817

Отслеживайте COSMOS 1620 в реальном времени с AllMySat

Download on the App Store